一网星座-0596星 (ONEWEB-0596 )

导读 | 星芒AI

ONEWEB-0596 是 OneWeb 卫星星座计划中的一颗低轨通信卫星,主要用于提供全球宽带互联网服务。该卫星由阿丽亚娜集团制造,采用 OneWeb 自主设计的卫星平台,具备高精度导航和高效数据传输能力。它运行在约 1200 公里的近地轨道,与其他 OneWeb 卫星共同构建星座网络,为航空、航海及偏远地区用户提供高速、低延迟的互联网连接。ONEWEB-0596 的发射进一步增强了 OneWeb 的全球覆盖能力和通信稳定性。

基本信息
目录编号:
54662
目录名称:
ONEWEB-0596
国际标识:
2022-166W
轨道中心:
EARTH
卫星名称:
一网星座-0596星
卫星全名:
一网星座-0596星 (ONEWEB-0596 )
卫星状态:
在轨 (已飞行1104 天)
发射日期:
2022-12-08 UTC
国别 :
英国 (GB)
星等 :
--
轨道信息
数据来源 国际轨道数据 AOE轨道数据
星历时间 2025-12-15T14:54:17+0800
19小时前
查看轨道信息
2025-12-14T07:00:00+0800
2天前
查看轨道信息
半长轴 7555.895km 7555.892km
偏心率 0.0001711 0.000173
轨道倾角 87.922° 87.922°
近地点辐角 76.658° 80.641°
升交点赤经 280.668° 280.934°
平近点角 283.475° 77.234°
近地点 1176.467km 1176.449km
远地点 1179.053km 1179.065km
周期 108.940分钟 108.940分钟
每日圈数 13.218248 13.218257
详细信息
平衡模式:
三轴稳定
覆盖范围:
全球
运营商:
一网卫星公司
运营商所在国:
英国
制造商(研发单位):
一网卫星公司
制造商所在国:
英国
使用方式:
暂无
卫星简介
OneWeb卫星网络由648颗重约125公斤的微型卫星组成,运行在1200公里的轨道上。 每颗卫星都能够提供至少每秒8千兆位的吞吐量,以使用其高吞吐量的Ku频段有效载荷为家庭和移动平台提供互联网接入。该卫星仍在工作。
2D轨道图
3D轨道图
轨道高度分析图
轨道倾角分析图
轨道综合分析图
查看轨道综合分析图